Calicut International Airport

Jump to: basic info | weather | frequencies | runways | comments

Related pages: nearby airports | nearby navaids | notams | map

Basic information (top)

Codes: CCJ VOCL
Location: lon 11.136800, lat 75.955299, elev 342 ft / 104 m msl
Status: large_airport
Scheduled airline service: yes
Links: Wikipedia Mobile

Weather (top)

Current conditions (rec'd 2014/09/02 03:30Z):

VOCL 020330Z 00000KT 4000 HZ FEW006 SCT012 FEW025CB BKN090 26/24 Q1009 TEMPO 3000 RA

Airport forecast (rec'd 2014/09/01 00:00Z):

TAF VOCL 012100Z 0200/0306 00000KT 4000 DZ/HZ SCT010 BKN090 
      TEMPO 0200/0203 2000 TSRA/RA SCT006 SCT012 FEW025CB OVC080 
      BECMG 0205/0206 27005KT 6000 
      TEMPO 0210/0214 2000 TSRA/RA SCT006 SCT012 FEW025CB OVC080 
      BECMG 0217/0218 00000KT 4000 HZ 
      TEMPO 0222/0303 2000 TSRA/RA SCT006 SCT012 FEW025CB OVC080

Frequencies (top)

Verify before use: may be inaccurate or out of date.

ATIS: 127 MHz (ATIS)
TWR: 122.95 MHz (TWR)

Runways (top)

10/28: 9,383 x 150 ft (2,860 x 46 m) — paved — lighted

Latest comments (top)

Moideenkutty oorakam ( CCJ ): Calicut int airport ( Terminal,1 - ... [read]

Info: Calicut International Airport ... [read]

More... (top)

See also NOTAMs and nearby airports and navaids, or visit the Calicut International Airport page at the main OurAirports website..